Regional Weather Roundup
Issued by NWS Kansas City/Pleasant Hill, MO

Home | Current Version | Previous Version | Graphics & Text | Print | Product List | Glossary Off
Versions: 1 2 3 4 5 6 7 8 9 10 11 12 13 14 15 16 17 18 19 20 21 22 23 24 25 26 27 28

000
ASUS43 KEAX 270410
RWREAX

WEATHER ROUNDUP FOR EASTERN KANSAS AND NORTHWEST MISSOURI
NATIONAL WEATHER SERVICE KANSAS CITY/PLEASANT HILL MO
1100 PM CDT FRI MAY 26 2017

KSZ040-057-103>105-MOZ028-029-037-043-270500-
...KANSAS CITY METROPOLITAN AREA...

CITY           SKY/WX    TMP DP  RH WIND       PRES   REMARKS
K.C. INTL      CLEAR     75  62  64 E7        29.84R
K.C. DOWNTOWN  CLEAR     74  64  71 CALM      29.82R
LEES SUMMIT    CLEAR     73  65  75 E5        29.84R
OLATHE - IXD   CLEAR     73  65  75 SE3       29.84R
OLATHE - OJC   CLEAR     72  65  78 SE5       29.84R
LAWRENCE       CLEAR     68  65  90 CALM      29.83R

$$

MOZ001>008-011>017-020>025-030>033-038>040-044>046-053-054-270500-
...NORTHERN AND CENTRAL MISSOURI...

CITY           SKY/WX    TMP DP  RH WIND       PRES   REMARKS
ST. JOSEPH     CLEAR     70  65  84 N3        29.83R
MOSBY          CLEAR     68  64  88 CALM      29.84R
WARRENSBURG    CLEAR     70  64  83 CALM      29.84R
WHITEMAN AFB   NOT AVBL
CLINTON        CLEAR     68  68 100 CALM      29.85R
SEDALIA        CLEAR     70  68  93 S3        29.85R
WARSAW         NOT AVBL
CHILLICOTHE      N/A     67  66  97 CALM      29.85R
KIRKSVILLE     CLEAR     63  60  90 E5        29.86R

$$

MOZ041-047>049-056>058-063>065-088>090-097-270500-
...EASTERN AND SOUTHERN MISSOURI...

CITY           SKY/WX    TMP DP  RH WIND       PRES   REMARKS
ST. LOUIS INTL MOCLDY    77  68  73 SW9       29.84R
SPIRIT OF STL  MOCLDY    73  70  90 W3        29.83R
COLUMBIA       CLEAR     72  67  84 CALM      29.85R
JEFFERSON CITY CLEAR     72  67  84 CALM      29.83S
ROLLA          CLEAR     66  66 100 S3        29.86R
OSAGE BEACH    CLEAR     69  68  96 CALM      29.86R
SPRINGFIELD    MOCLDY    75  70  84 E8        29.85R
BRANSON        CLOUDY    73  72  94 CALM      29.86R
JOPLIN         PTCLDY    76  70  82 E6        29.83R
WEST PLAINS    CLOUDY    73  69  87 S6        29.89R

$$

IAZ060-094-KSZ022-034>040-054-083-096-NEZ052-066-093-270500-
...KANSAS...SOUTHEAST NEBRASKA AND IOWA...

CITY           SKY/WX    TMP DP  RH WIND       PRES   REMARKS
TOPEKA         CLEAR     69  67  93 CALM      29.82R
MANHATTAN      PTCLDY    66  62  87 CALM      29.83R
EMPORIA        CLEAR     67  64  90 SE5       29.84R
CHANUTE        CLEAR     74  64  71 E6        29.83R
WICHITA        CLEAR     73  63  70 E8        29.84R
OMAHA          CLOUDY    61  53  75 N5        29.86S
LINCOLN        CLOUDY    65  50  58 NE5       29.87R
FALLS CITY     CLEAR     70  53  54 N3        29.84R
LAMONI         PTCLDY    72  61  68 CALM      29.86R
DES MOINES     PTCLDY    69  63  81 SE5       29.86R

$$





USA.gov is the U.S. government's official web portal to all federal, state and local government web resources and services.